Flag Weather past 2 weeks in Stäfa, Zurich, Switzerland

Now
42 °F

Quite cool.


Feels Like: 42 °F
Forecast: 40 / 63 °F
Wind: 1 mph from Southwest

Location: Zurich Town / Ville.

Current Time: Nov 23, 2014 at 9:07:45 PM

Latest Report: Nov 23, 2014 at 8:00 PM


Visibility: N/A

Pressure: 30.22 "Hg

Humidity: 100%

Dew point: 42 °F

Location of StäfaLocation

Historic Weather in Stäfa — Graph

°F

Stäfa temperature yesterday

Maximum temperature yesterday: 48 °F (at 2:00 PM)
Minimum temperature yesterday: 38 °F (at 8:00 AM)
Average temperature yesterday: 43 °F

Past Weeks' High & Low Weather Summary

 TemperatureHumidityPressure
High52 °F (Nov 15, 12:00 PM)100% (Nov 9, 7:00 AM)30.32 "Hg (Nov 9, 7:00 AM)
Low35 °F (Nov 20, 5:00 AM)66% (Nov 21, 3:00 PM)29.56 "Hg (Nov 15, 9:00 PM)
Average44 °F92%29.92 "Hg
* Reported Nov 8 7:00 PM — Nov 23 7:00 PM, Stäfa, Weather by CustomWeather, © 2014

Note: Actual official high and low records may vary slightly from our data, if they occured in-between our weather recording intervals... More about our weather records

Advertising

Stäfa weather history for previous 24 hours

 ConditionsComfort  
Time TempWeatherWind HumidityBarometerVisibility
7:00 PM
Nov 23
41 °FQuite cool.1 mph100%30.22 "HgN/A
6:00 PM41 °FQuite cool.1 mph100%30.22 "HgN/A
5:00 PM41 °FQuite cool.1 mph100%30.22 "HgN/A
4:00 PM41 °FQuite cool.1 mph98%30.22 "HgN/A
3:00 PM42 °FQuite cool.1 mph96%30.22 "HgN/A
2:00 PM42 °FQuite cool.2 mph95%30.23 "HgN/A
1:00 PM41 °FQuite cool.1 mph97%30.25 "HgN/A
12:00 PM39 °FChilly.1 mph100%30.27 "HgN/A
11:00 AM39 °FChilly.2 mph99%30.28 "HgN/A
10:00 AM38 °FChilly.No wind99%30.27 "HgN/A
9:00 AM37 °FChilly.3 mph100%30.27 "HgN/A
8:00 AM38 °FChilly.2 mph100%30.27 "HgN/A
7:00 AM38 °FChilly.1 mph100%30.25 "HgN/A
6:00 AM37 °FChilly.1 mph100%30.26 "HgN/A
5:00 AM37 °FChilly.2 mph100%30.25 "HgN/A
4:00 AM37 °FChilly.3 mph100%30.25 "HgN/A
3:00 AM38 °FChilly.3 mph100%30.25 "HgN/A
2:00 AM39 °FChilly.No wind100%30.24 "HgN/A
1:00 AM40 °FQuite cool.No wind99%30.24 "HgN/A
12:00 AM39 °FChilly.1 mph100%30.24 "HgN/A
11:00 PM
Nov 22
38 °FChilly.No wind97%30.24 "HgN/A
10:00 PM39 °FChilly.No wind98%30.24 "HgN/A
9:00 PM39 °FChilly.1 mph96%30.23 "HgN/A
Weather by CustomWeather, © 2014

See weather overviewHow to use our weather pages